This is the latest recevied weather packets stored in our database for station/object KD9CCP. If no packets are shown the sender has not sent any weather packets the latest 10 day(s).
| Time | Temp. | Humidity | Pressure | Rain* | Wind** | Luminosity | Snow |
|---|---|---|---|---|---|---|---|
| 1778126463 | 2.22° C | 76% | 1014.6 hPa | 0 mm | - | 0 W/m² | - |
| 1778126159 | 2.22° C | 75% | 1014.9 hPa | 0 mm | - | 0 W/m² | - |
| 1778125856 | 2.22° C | 75% | 1015 hPa | 0 mm | - | 0 W/m² | - |
| 1778125552 | 2.22° C | 76% | 1014.9 hPa | 0 mm | - | 0 W/m² | - |
| 1778125250 | 2.22° C | 75% | 1015.2 hPa | 0 mm | - | 0 W/m² | - |
| 1778124949 | 2.22° C | 74% | 1015.2 hPa | 0 mm | - | 0 W/m² | - |
| 1778124645 | 2.22° C | 75% | 1015.4 hPa | 0 mm | - | 0 W/m² | - |
| 1778124342 | 2.22° C | 74% | 1015.4 hPa | 0 mm | - | 0 W/m² | - |
| 1778124039 | 2.78° C | 74% | 1015.3 hPa | 0 mm | - | 0 W/m² | - |
| 1778123735 | 2.78° C | 74% | 1015.4 hPa | 0 mm | - | 0 W/m² | - |
| 1778123432 | 2.78° C | 72% | 1015.2 hPa | 0 mm | - | 0 W/m² | - |
| 1778123129 | 2.78° C | 74% | 1015.2 hPa | 0 mm | - | 0 W/m² | - |
| 1778122827 | 2.78° C | 71% | 1015.5 hPa | 0 mm | - | 0 W/m² | - |
| 1778122523 | 2.78° C | 71% | 1015.4 hPa | 0 mm | - | 0 W/m² | - |
| 1778122221 | 2.78° C | 70% | 1015.3 hPa | 0 mm | - | 0 W/m² | - |
| 1778121918 | 2.78° C | 71% | 1015.5 hPa | 0 mm | - | 0 W/m² | - |
| 1778121615 | 2.78° C | 70% | 1015.3 hPa | 0 mm | - | 0 W/m² | - |
| 1778121311 | 2.78° C | 70% | 1015.4 hPa | 0 mm | - | 0 W/m² | - |
| 1778121009 | 2.78° C | 70% | 1015.3 hPa | 0 mm | - | 0 W/m² | - |
| 1778120705 | 2.78° C | 69% | 1015.3 hPa | 0 mm | - | 0 W/m² | - |
| 1778120400 | 2.78° C | 69% | 1015.4 hPa | 0 mm | - | 0 W/m² | - |
| 1778120096 | 3.33° C | 68% | 1015.2 hPa | 0 mm | - | 0 W/m² | - |
| 1778119793 | 3.33° C | 67% | 1015.2 hPa | 0 mm | - | 0 W/m² | - |
| 1778119490 | 3.33° C | 69% | 1015.3 hPa | 0 mm | - | 0 W/m² | - |
| 1778119187 | 3.33° C | 65% | 1015.2 hPa | 0 mm | - | 0 W/m² | - |
* Rain latest hour (hover to see other rain measurements)
** Current wind speed in m/s (hover to see current wind gust speed)